Overview Statistics Trail Chart Weather Telemetry Raw packets
 

This is the latest recevied weather packets stored in our database for station/object K2CAT. If no packets are shown the sender has not sent any weather packets the latest 10 day(s).

<< 67 68 69 70 71 72 73 >>
Time Temp. Humidity Pressure Rain* Wind** Luminosity Snow
1777242207 18.33° C 46% 1019.1 hPa 0 mm - 42 W/m² -
1777241906 18.89° C 45% 1018.9 hPa 0 mm - 44 W/m² -
1777241602 18.89° C 44% 1019.1 hPa 0 mm - 47 W/m² -
1777241300 18.89° C 43% 1019 hPa 0 mm - 127 W/m² -
1777240997 18.89° C 44% 1019.1 hPa 0 mm - 136 W/m² -
1777240694 19.44° C 41% 1019 hPa 0 mm - 147 W/m² -
1777240392 20° C 45% 1019.1 hPa 0 mm - 160 W/m² -
1777240089 19.44° C 41% 1019 hPa 0 mm - 174 W/m² -
1777239788 19.44° C 42% 1018.8 hPa 0 mm - 138 W/m² -
1777239483 19.44° C 45% 1019.2 hPa 0 mm - 201 W/m² -
1777239180 19.44° C 44% 1019 hPa 0 mm - 217 W/m² -
1777238877 19.44° C 40% 1019 hPa 0 mm - 231 W/m² -
1777238574 20° C 41% 1018.8 hPa 0 mm - 247 W/m² -
1777238270 19.44° C 42% 1018.9 hPa 0 mm - 260 W/m² -
1777237968 19.44° C 43% 1018.8 hPa 0 mm - 272 W/m² -
1777237664 18.89° C 45% 1018.6 hPa 0 mm - 286 W/m² -
1777237362 18.89° C 44% 1018.8 hPa 0 mm - 229 W/m² -
1777237059 19.44° C 45% 1018.9 hPa 0 mm - 314 W/m² -
1777236757 18.89° C 47% 1018.7 hPa 0 mm - 329 W/m² -
1777236455 18.33° C 50% 1018.6 hPa 0 mm - 333 W/m² -
1777236152 18.89° C 44% 1018.8 hPa 0 mm - 358 W/m² -
1777235848 20° C 45% 1018.8 hPa 0 mm - 372 W/m² -
1777235546 20° C 46% 1018.7 hPa 0 mm - 385 W/m² -
1777235242 18.89° C 48% 1018.7 hPa 0 mm - 399 W/m² -
1777234938 18.89° C 46% 1018.9 hPa 0 mm - 412 W/m² -

* Rain latest hour (hover to see other rain measurements)
** Current wind speed in m/s (hover to see current wind gust speed)